{"data":{"norad_id":69410,"intl_designator":"2026-125K","name":"QIANFAN-192","alt_names":[],"object_type":"PAYLOAD","status":"ACTIVE","operator":null,"country":"PRC","launch_date":"2026-06-05","launch_site_code":"WSC","launch_vehicle":null,"mission":null,"orbit_class":"UNKNOWN","rcs_meters":null,"size_class":null,"mass_kg":null,"dimensions":null,"purposes":[],"wikipedia_slug":null,"has_3d_model":false,"image_url":null,"decayed_at":null,"tle_current":{"epoch":"2026-09-20T04:23:47.209056Z","epoch_age_seconds":62185,"freshness":"FRESH","line1":"1 69410U 26125K   26263.18318529  .00000023  00000+0  16560-4 0  9998","line2":"2 69410  88.9888 270.3510 0002169 105.2309 254.9082 13.51019611 14774","mean_motion":13.51019611,"eccentricity":0.0002169,"inclination_deg":88.9888,"raan_deg":270.351,"arg_perigee_deg":105.2309,"mean_anomaly_deg":254.9082,"bstar":1.656e-5,"rev_number":1477,"period_min":106.5861656097,"perigee_km":1066.8943445345,"apogee_km":1070.1246997958,"semimajor_km":7446.6465221652,"source":"CELESTRAK","updated_at":"2026-09-20T09:00:24.867021Z"}}}